ECMWFFLT2_500_spd_057.txt.gz
Wind_Speed
25 25 25 24 24 25 24 24 24 23 23 22 22 21 20 20 19 19 19 18 17 16 15 13 12 11 10 10 10 10 11 10 10 11 12 14 15 15 16 16 16 15 17 18 18 17 17 17 17 17 17 15 15 15 15 15 13 12 12 11 11 10
25 25 24 23 24 24 24 24 24 23 23 23 22 21 21 20 19 19 19 19 17 15 15 13 11 11 10 11 11 11 11 10 10 11 12 14 16 16 17 18 18 17 18 19 19 18 17 16 15 15 16 16 16 17 17 17 16 14 13 13 13 12
23 23 22 22 23 24 24 24 23 23 24 23 22 21 21 20 19 19 19 18 16 16 15 13 11 11 11 12 12 11 10 10 10 12 13 14 16 16 16 18 20 19 18 19 19 17 16 14 13 14 17 18 18 19 19 19 18 16 15 14 15 14
22 22 21 22 22 24 24 24 24 25 25 23 23 22 21 19 19 20 19 17 16 16 14 11 11 12 13 13 12 11 11 11 12 12 13 13 14 15 15 17 18 18 18 19 18 16 15 13 14 15 16 17 18 19 21 21 19 17 17 16 16 16
21 21 21 21 22 24 25 25 26 26 25 24 24 23 21 20 20 20 18 17 15 14 11 10 11 13 13 12 11 11 12 13 13 13 13 13 13 15 16 17 17 17 18 19 18 16 15 15 15 15 17 17 17 19 22 20 17 18 18 17 17 17
20 19 20 21 21 24 26 28 28 26 25 24 24 22 21 20 19 18 17 15 13 12 12 12 12 12 12 12 12 13 13 13 13 13 13 13 14 15 16 16 16 16 17 19 18 15 14 15 16 18 19 18 17 18 19 17 15 16 17 16 16 17
20 18 19 19 20 23 26 28 27 25 24 23 23 22 22 21 18 16 15 13 11 13 15 15 13 13 13 13 13 14 13 12 12 13 14 13 14 15 15 15 15 15 16 17 16 14 14 15 16 18 17 16 17 18 18 17 15 15 15 15 16 17
21 19 19 18 18 21 23 25 24 22 21 21 22 23 22 20 18 15 14 13 12 16 17 16 15 15 14 14 14 13 13 12 12 13 14 14 14 14 14 14 13 13 15 16 14 14 15 16 15 15 14 15 17 17 18 17 16 15 15 15 15 17
23 20 19 19 16 17 20 20 20 21 20 21 23 22 20 18 16 15 15 14 16 19 18 16 16 16 15 14 13 13 12 12 12 13 13 13 13 13 13 13 12 12 14 15 15 15 16 15 14 13 13 14 16 17 16 15 15 15 15 15 15 16
23 21 19 19 17 16 18 18 18 22 21 22 23 21 20 17 15 15 15 16 18 19 18 17 17 17 16 14 13 12 12 12 12 13 13 12 12 12 11 11 12 12 13 13 13 14 14 14 13 12 12 15 17 15 14 14 14 14 15 15 16 16
21 21 20 19 18 16 18 20 20 22 21 21 23 22 20 18 17 16 17 18 20 21 20 18 18 17 16 14 13 11 11 12 12 12 12 11 11 11 11 11 11 12 12 12 13 13 13 13 13 11 12 15 16 14 13 14 14 14 15 15 16 17
21 23 23 20 17 16 18 21 21 21 21 22 24 23 21 20 19 19 20 20 22 22 20 19 18 17 16 14 13 12 12 12 12 12 11 12 11 11 10 10 10 11 11 12 13 13 12 12 12 11 12 13 14 15 15 15 14 15 14 14 16 17
21 21 23 21 18 18 19 21 22 21 21 21 21 22 20 19 19 20 21 22 22 22 21 20 19 18 16 14 13 13 13 12 12 12 12 12 11 10 9 9 10 10 11 12 12 11 11 12 12 12 12 13 14 15 16 15 15 15 14 13 14 15
19 21 24 23 20 19 19 20 22 22 20 19 20 20 19 19 20 21 22 22 22 22 21 20 19 18 16 15 14 14 14 13 12 12 11 11 10 9 8 8 9 10 10 10 10 9 10 11 12 12 12 13 14 14 13 14 15 15 14 13 13 15
20 23 25 23 20 19 19 20 21 20 19 19 20 20 20 21 22 22 22 22 22 21 21 20 19 18 17 15 15 15 14 13 12 11 11 10 9 8 8 7 8 8 9 9 8 8 9 10 11 11 10 10 12 12 12 13 13 14 14 13 13 14
20 21 22 21 20 20 20 21 19 18 18 18 18 19 20 21 22 22 22 22 22 21 20 20 20 18 17 16 15 15 14 13 12 11 11 9 8 8 7 6 6 7 8 8 7 8 9 9 10 10 8 8 11 11 10 11 10 11 13 12 12 13
20 19 19 18 18 18 18 18 18 18 18 17 17 17 19 20 21 22 22 22 21 21 21 20 19 17 16 16 15 15 13 12 12 11 10 8 7 7 7 6 6 7 7 7 6 7 8 9 10 9 7 8 10 9 8 9 9 9 11 11 11 11
19 19 18 18 18 18 17 16 18 20 19 19 18 18 19 20 21 22 22 22 21 21 21 19 17 16 15 15 15 14 13 12 12 11 10 8 6 6 7 6 6 7 7 7 6 6 7 8 9 8 7 7 8 8 6 6 8 9 11 11 10 10
20 19 19 20 20 20 19 19 21 20 20 21 20 19 20 20 21 21 21 21 20 20 19 18 16 16 15 15 15 14 13 12 11 11 10 8 7 6 6 7 7 8 7 6 6 7 7 8 8 7 7 7 7 7 5 6 8 10 11 11 9 8
20 20 19 20 21 22 22 22 21 20 22 22 20 20 21 20 20 20 20 20 19 19 18 16 16 16 15 15 15 13 12 12 11 11 10 8 7 7 7 8 9 8 8 7 6 7 8 8 8 8 7 7 7 7 7 8 8 9 9 11 9 7
19 19 20 22 23 24 24 22 21 21 22 21 20 20 21 20 20 20 20 20 19 18 17 16 16 16 15 15 13 13 12 12 12 11 11 9 8 8 8 9 10 9 9 8 7 8 9 8 8 9 8 8 8 7 7 8 7 8 9 10 9 6
18 19 22 25 25 25 25 24 23 22 22 21 20 21 20 20 20 20 20 20 19 18 17 16 16 16 15 14 12 12 12 12 12 12 11 10 9 9 10 11 11 10 9 8 8 9 9 8 8 9 9 8 8 8 8 7 7 7 8 8 6 4
21 21 23 24 24 25 24 24 24 23 22 21 21 20 19 19 20 20 20 19 19 18 17 16 16 16 15 13 12 12 12 12 12 12 12 11 10 10 11 12 12 11 10 9 10 11 10 10 9 9 9 8 8 8 8 7 7 6 6 6 5 3
25 23 23 24 25 25 25 25 24 23 21 20 21 20 18 19 21 21 20 19 19 17 17 16 16 16 15 13 12 12 12 12 13 13 13 12 11 11 12 12 12 12 11 11 11 12 11 11 11 9 8 8 7 7 8 7 6 6 5 5 4 3
25 25 27 29 29 28 28 26 24 23 21 21 22 20 20 20 20 21 21 19 18 17 16 16 16 15 14 13 12 12 12 13 13 13 13 13 12 12 12 13 13 12 12 12 12 13 11 11 11 10 9 8 8 8 8 8 7 6 6 5 3 3
25 28 31 32 31 28 27 26 25 25 23 22 23 22 21 21 20 21 21 19 18 17 16 16 16 15 15 14 13 13 13 14 14 14 14 13 12 12 13 14 13 13 13 13 13 12 12 11 11 11 10 10 9 8 8 8 8 7 7 6 4 4
27 29 29 30 28 26 25 26 26 25 24 23 24 24 23 22 22 21 21 20 19 18 17 16 16 16 15 15 14 14 14 15 15 15 14 14 13 13 14 14 14 13 13 13 13 12 12 13 12 12 12 11 10 10 10 9 9 9 8 8 7 7
29 28 26 27 27 24 24 26 27 25 23 23 22 23 23 24 24 22 22 23 20 18 18 17 17 17 16 15 15 15 15 16 16 16 15 14 14 14 14 14 14 14 13 13 13 13 13 13 13 11 12 12 11 11 12 11 10 9 8 9 9 8
28 26 25 27 28 27 24 23 25 25 23 22 22 22 22 24 24 21 21 23 21 19 19 17 17 17 16 16 16 16 16 16 17 16 15 15 15 15 15 14 14 14 14 14 14 13 12 13 13 11 11 11 11 12 12 12 11 10 9 9 10 9
30 27 28 30 30 27 23 20 22 23 23 23 23 22 21 24 25 22 22 23 21 19 19 17 18 17 17 16 16 17 17 17 17 16 16 16 16 16 15 15 15 15 15 14 14 13 13 13 13 12 11 11 11 11 12 11 11 11 10 10 10 10
36 33 30 34 35 29 21 17 19 21 22 25 23 21 22 23 25 24 23 22 20 19 19 18 17 17 17 17 17 17 17 17 17 17 16 16 16 16 16 15 14 15 16 16 15 14 13 13 13 12 12 12 11 11 11 11 11 11 11 10 11 10
40 37 32 30 32 31 22 17 18 19 21 26 24 22 24 24 24 23 22 20 19 19 19 18 17 17 17 17 17 17 17 17 17 17 17 17 17 16 16 15 15 15 16 16 16 16 14 14 14 13 13 13 12 12 11 11 12 12 11 11 11 11
37 41 43 36 24 22 22 20 20 20 22 27 26 23 24 25 26 24 21 19 20 19 19 18 17 17 17 17 18 17 17 17 17 17 18 18 18 17 17 16 16 16 17 17 17 17 16 15 15 15 15 14 14 14 12 12 13 13 12 12 12 12
35 37 45 46 33 23 21 22 22 21 23 26 26 25 24 26 27 25 22 19 20 20 19 19 18 18 18 18 18 18 18 18 18 18 18 19 19 18 18 18 17 17 17 18 18 17 17 16 15 16 16 14 14 14 13 13 14 15 13 13 13 14
38 36 38 43 41 30 22 22 24 23 24 26 27 27 25 26 29 29 24 21 21 21 20 20 20 20 19 18 18 18 19 19 18 18 19 20 20 20 19 19 18 18 19 19 19 17 17 16 16 16 16 15 14 14 14 14 16 16 15 15 15 15
38 38 38 41 42 34 26 24 24 25 27 27 28 30 27 26 29 30 27 24 23 22 22 21 21 20 19 19 19 19 19 19 19 19 20 21 21 21 20 19 19 19 20 20 19 18 18 17 17 18 18 17 16 15 16 17 17 17 17 17 17 16
37 38 38 38 36 31 26 24 25 28 29 28 29 30 28 26 29 29 27 26 24 23 23 22 22 21 20 20 19 19 19 19 20 20 21 21 21 21 21 20 19 20 20 20 20 19 19 19 19 19 19 18 17 18 19 19 19 19 19 19 18 17

ECMWFFLT2_500_spd_060.txt.gz
Wind_Speed
25 25 25 25 24 24 24 24 24 23 23 23 24 24 24 23 22 21 22 21 19 19 18 17 16 15 14 13 12 12 13 14 14 13 12 11 11 12 13 13 13 12 13 16 17 16 16 16 16 15 13 11 12 14 15 14 14 13 11 10 11 11
25 25 25 24 24 24 23 23 23 23 23 24 24 24 23 22 22 22 22 20 20 19 19 19 17 16 14 14 14 13 14 15 15 13 12 11 12 13 13 13 13 12 14 16 17 16 15 16 14 12 11 11 13 15 16 14 14 14 13 11 11 12
26 25 25 24 23 23 23 23 23 23 23 24 24 23 22 23 23 22 22 21 20 20 20 20 17 15 15 14 14 14 14 15 15 13 12 12 13 13 13 13 12 12 13 14 15 14 14 14 12 11 11 13 14 14 15 13 13 15 14 11 12 13
26 25 25 22 22 23 23 23 22 22 23 23 23 23 22 23 23 22 21 22 21 20 21 20 18 16 15 14 13 14 15 15 14 14 13 14 13 13 13 13 13 13 13 13 13 14 14 14 12 11 11 12 14 15 14 11 12 15 14 11 12 13
27 27 24 20 22 22 21 21 20 21 22 22 22 22 23 23 22 21 21 21 21 21 22 20 18 15 14 13 13 14 14 14 14 14 14 14 14 14 14 14 14 14 13 13 13 13 14 13 11 10 12 14 16 15 13 10 10 14 13 11 11 12
27 26 22 21 23 22 20 19 18 20 20 20 21 22 23 23 23 22 21 22 22 22 21 18 15 14 13 13 13 14 14 14 13 13 13 14 14 15 15 15 15 14 13 12 13 13 12 10 9 11 13 15 16 13 10 9 10 13 13 11 11 12
24 23 22 25 26 23 20 18 16 16 17 19 21 22 23 23 23 22 21 22 22 20 19 17 15 14 14 14 14 14 14 13 13 13 13 14 15 15 15 15 15 13 12 11 12 12 11 10 10 12 14 16 16 15 15 10 9 11 11 11 11 11
23 22 23 25 24 23 21 20 17 14 15 18 20 21 21 22 21 21 22 22 21 20 18 17 15 14 14 15 14 14 13 12 12 12 12 13 14 15 15 15 14 12 11 11 11 10 10 10 11 12 14 16 17 18 19 13 8 10 11 12 12 12
22 21 21 19 17 20 21 21 21 16 14 15 18 19 20 20 20 20 21 21 20 19 17 16 14 13 13 13 13 12 12 11 11 11 12 13 14 15 15 13 12 11 11 11 10 9 8 8 10 12 13 15 16 15 13 10 9 10 11 13 13 13
22 20 19 17 16 21 22 21 21 18 14 13 16 18 19 19 20 20 19 19 18 17 17 17 15 13 13 12 12 12 11 11 10 10 12 13 14 13 12 11 10 10 11 11 10 8 8 7 8 11 11 13 13 12 9 8 11 12 12 13 13 14
22 19 18 18 19 21 22 21 21 19 16 15 16 18 18 19 20 21 20 18 18 17 17 17 16 14 13 13 12 11 11 10 10 10 12 13 12 11 10 9 9 10 10 10 10 8 8 7 6 8 10 11 11 10 9 10 14 15 14 12 11 13
20 18 18 19 19 20 20 20 20 19 18 18 17 18 19 20 21 22 21 19 19 19 16 15 15 14 13 13 12 11 10 10 10 10 11 11 11 10 9 9 9 9 9 9 9 7 8 9 6 6 9 11 10 9 9 9 12 14 15 13 11 12
20 18 18 18 19 20 20 19 18 19 21 21 19 19 20 21 21 21 20 19 20 17 13 13 13 13 15 14 12 12 10 10 9 9 9 10 10 10 9 8 7 9 9 8 8 7 9 10 8 7 9 10 10 10 10 10 12 13 13 12 12 12
20 18 17 20 20 19 19 19 19 19 22 23 22 21 20 21 20 19 19 18 18 14 12 12 12 14 16 15 13 11 10 9 9 9 9 10 10 10 9 7 7 8 7 6 6 6 8 10 9 9 9 9 10 11 10 10 12 13 11 11 12 11
20 18 18 20 20 19 19 19 20 20 22 23 23 22 20 20 19 18 18 17 16 14 12 14 14 17 16 14 14 12 10 9 8 9 9 9 9 9 8 7 6 6 5 5 5 5 6 9 9 9 9 9 10 11 10 10 11 11 11 11 11 9
19 19 20 20 21 21 20 20 21 22 23 23 22 21 19 19 18 17 17 17 16 14 13 15 17 18 15 14 14 11 10 9 8 8 8 8 9 9 8 7 6 5 4 3 5 4 4 7 8 7 8 9 10 11 11 10 9 9 9 10 10 10
20 21 22 23 23 23 21 20 21 23 24 23 21 20 18 17 16 15 16 17 16 15 15 16 18 17 15 14 12 12 11 9 8 8 8 8 9 8 7 6 5 5 3 3 5 4 3 6 7 7 8 9 10 10 11 10 8 7 8 10 11 11
21 23 24 24 24 23 22 21 22 24 25 21 18 19 18 16 15 15 15 16 16 16 17 18 17 16 14 13 14 13 11 9 8 8 7 8 8 7 7 6 5 5 4 3 4 4 4 6 7 6 8 9 8 9 10 9 8 8 9 10 11 10
24 25 25 24 22 21 22 23 24 24 23 21 18 17 17 16 15 15 16 17 17 17 18 17 16 15 14 14 15 14 11 9 8 7 7 7 7 7 7 6 6 5 4 3 4 4 4 6 6 6 8 8 8 8 9 9 9 9 9 9 10 9
25 26 24 21 20 21 23 23 24 22 19 19 18 18 18 18 17 16 18 18 17 16 16 17 16 14 13 14 14 14 12 10 8 7 7 7 8 8 7 6 6 5 5 4 4 4 5 5 6 6 7 8 8 8 8 8 8 8 8 9 10 9
24 23 21 20 20 23 24 23 22 20 18 18 19 20 20 20 18 18 18 17 16 15 14 16 16 14 13 13 13 13 12 10 9 8 7 8 9 8 6 6 6 6 6 5 5 5 5 6 6 6 7 8 8 8 7 7 7 7 7 8 9 8
19 18 19 20 24 26 26 23 22 20 19 20 21 22 21 19 18 17 16 17 16 14 14 15 15 14 14 14 13 12 12 11 10 9 8 9 9 7 7 7 7 7 7 6 6 6 6 6 7 7 8 9 8 8 7 6 7 7 7 7 7 7
17 19 22 24 26 25 24 22 22 21 21 22 23 21 19 18 18 16 16 17 17 16 17 16 15 15 14 14 13 12 12 12 11 10 10 9 8 8 8 8 8 8 7 7 7 7 7 7 7 7 8 8 8 7 7 7 7 7 6 6 6 6
21 25 26 25 23 19 19 21 22 22 22 22 22 19 18 18 18 18 18 19 18 18 18 16 14 15 15 14 13 12 12 12 11 11 10 10 9 8 9 9 8 8 8 8 8 8 9 9 9 8 8 8 8 7 6 7 8 7 6 6 5 4
26 29 25 23 22 19 19 20 20 21 23 23 21 19 18 19 19 19 19 20 19 18 18 16 14 14 15 15 14 13 13 12 12 11 10 10 9 8 8 9 8 8 8 9 9 9 10 10 9 8 8 8 8 7 7 7 7 7 6 5 3 3
28 25 20 19 21 21 19 19 20 21 24 26 23 21 20 20 21 20 20 21 19 17 19 18 14 14 15 15 15 14 13 13 12 11 11 10 9 8 8 9 9 8 9 10 10 10 10 10 9 8 9 9 9 8 8 8 8 7 7 5 3 2
30 24 20 17 19 21 19 19 22 21 22 24 23 22 21 22 22 21 21 20 18 17 19 19 17 16 16 14 15 14 14 13 12 11 11 10 9 8 8 9 9 9 10 10 10 11 11 10 9 9 10 10 10 10 9 9 9 8 7 7 6 4
30 26 23 21 21 23 21 19 21 21 21 22 22 21 21 22 23 22 22 20 17 17 19 20 19 18 16 14 14 15 14 13 12 11 11 10 10 9 9 9 9 9 10 11 11 11 11 11 10 9 10 11 11 11 10 9 9 9 8 8 7 6
31 26 26 26 25 26 24 22 22 22 21 20 20 22 21 21 21 21 21 20 19 19 19 21 21 18 15 14 15 15 14 14 13 11 11 10 10 10 9 9 9 10 10 10 11 12 12 12 11 9 9 10 11 10 9 10 9 9 9 8 8 8
32 29 29 30 27 25 24 25 25 22 21 21 20 21 21 20 19 19 20 20 20 20 20 21 20 17 15 15 15 15 15 14 13 11 11 11 11 10 10 9 9 10 10 11 11 11 12 13 12 10 10 10 10 9 9 9 9 9 9 8 8 8
33 33 33 32 29 26 23 26 28 24 20 20 20 19 20 19 19 19 20 19 18 19 21 22 20 18 16 15 15 15 15 14 13 11 11 11 11 10 10 10 9 10 11 12 11 11 12 13 13 12 11 10 9 9 9 9 9 9 9 8 8 9
32 34 35 33 31 28 21 20 22 23 19 18 17 18 17 18 18 18 17 18 19 20 22 22 20 18 16 15 15 15 15 14 13 12 12 12 11 11 11 11 10 11 12 13 12 10 12 14 14 13 13 12 10 9 9 10 9 9 8 8 8 9
28 30 31 31 32 33 27 16 12 14 17 17 16 16 16 17 18 18 17 18 20 21 22 22 20 18 16 15 15 16 15 15 14 13 13 12 12 12 12 11 11 12 12 13 13 11 12 14 14 15 15 14 13 11 11 12 11 10 10 10 10 10
24 25 25 26 28 31 33 27 17 13 14 16 17 16 15 17 19 19 18 19 21 21 22 22 20 17 16 16 16 17 17 16 15 14 14 13 13 13 13 13 13 13 13 13 13 13 13 14 14 15 16 15 14 12 12 13 12 11 11 11 12 12
21 23 23 24 26 27 31 34 31 25 18 16 18 18 16 16 19 20 20 20 21 22 22 22 20 18 17 17 17 18 18 17 16 15 14 14 14 14 14 14 14 14 14 14 14 14 14 14 14 15 16 16 14 13 13 13 13 12 12 13 14 14
20 21 21 22 24 25 28 31 34 33 27 21 19 18 18 18 18 20 22 21 22 23 24 22 19 18 17 17 19 19 18 17 16 15 15 15 15 16 16 15 15 15 15 15 15 15 15 15 15 16 16 16 15 14 14 15 15 14 13 15 16 15
19 19 20 21 22 24 25 27 28 30 29 24 20 19 20 20 20 20 22 23 23 23 24 20 18 18 18 18 19 19 18 17 17 16 16 16 16 16 16 16 16 16 16 15 15 15 15 15 16 17 17 16 16 15 16 18 18 16 16 17 17 17

ECMWFFLT2_500_spd_063.txt.gz
Wind_Speed
23 23 23 23 22 21 21 23 24 23 22 22 22 22 21 20 20 19 18 17 17 16 16 16 17 18 18 17 16 15 13 11 11 11 11 10 10 9 9 10 10 10 10 10 10 10 10 11 12 12 8 5 5 7 8 8 7 6 6 6 5 6
22 22 23 23 23 22 22 23 24 22 21 21 22 21 20 19 20 18 16 16 17 16 16 17 17 18 18 17 17 16 15 13 12 11 11 10 10 10 10 10 10 10 10 10 10 10 10 10 11 11 9 6 7 8 9 9 8 8 7 6 5 6
23 24 25 25 23 22 22 24 23 21 20 22 22 19 19 19 19 17 16 15 16 17 16 17 18 18 17 17 17 17 16 13 12 12 12 11 11 11 10 11 10 10 10 9 10 10 10 10 11 11 10 7 7 8 10 9 8 8 8 8 6 6
24 25 25 24 23 23 24 24 22 20 20 21 21 19 18 19 18 16 15 15 16 16 16 17 18 18 18 18 18 17 16 14 12 12 12 12 12 11 11 11 11 11 10 9 9 9 10 11 11 11 9 7 5 7 10 9 7 6 7 8 7 7
24 24 24 23 22 23 24 22 20 21 21 21 20 18 17 17 17 16 15 16 16 16 17 17 17 18 18 18 18 16 15 14 13 13 13 12 12 12 12 12 12 11 9 8 8 9 10 11 11 10 8 7 6 6 8 8 7 5 6 7 7 8
24 24 23 23 21 22 21 20 21 23 22 21 19 16 16 16 16 16 15 16 16 16 17 17 17 17 17 16 15 15 14 15 14 13 13 14 14 13 13 13 11 10 8 7 8 9 9 10 10 9 9 8 6 7 8 10 10 7 6 6 7 8
24 23 23 23 22 22 22 22 24 25 23 21 17 14 14 16 16 16 15 15 16 16 17 17 17 15 14 13 13 14 15 15 15 14 14 14 14 14 14 12 10 8 7 7 7 8 8 9 10 10 10 9 7 8 9 10 13 11 8 7 7 7
23 22 23 22 20 21 23 23 23 23 21 20 19 14 12 14 16 15 15 15 15 16 16 16 16 15 13 14 14 15 14 14 15 15 14 14 14 13 13 10 8 7 6 7 7 8 8 8 9 9 10 9 7 7 7 7 11 11 7 7 8 7
23 22 21 20 19 19 20 19 18 19 18 18 19 16 12 13 15 15 14 14 15 15 14 14 14 13 13 14 14 14 14 14 14 14 13 13 13 13 11 8 6 6 6 7 7 7 7 7 9 9 9 9 8 6 8 7 4 8 6 7 7 7
22 21 19 18 19 19 20 18 17 18 18 16 15 16 14 13 15 16 15 15 14 14 14 12 11 11 12 13 12 13 12 13 13 13 13 12 12 11 9 7 5 5 6 6 6 6 7 8 10 9 7 7 8 8 9 7 3 7 8 7 8 9
21 20 18 19 18 20 21 19 19 20 19 16 14 15 15 14 16 17 16 15 14 15 15 13 11 12 13 14 12 12 12 12 13 12 12 12 11 10 7 5 5 6 6 5 5 6 8 10 10 7 5 6 7 7 6 5 5 6 8 8 10 10
21 19 19 19 19 20 21 21 21 21 20 18 15 16 16 15 17 18 16 15 15 15 15 14 14 14 14 14 11 10 11 11 12 12 12 10 9 9 7 6 6 6 6 5 6 7 8 10 8 5 5 6 6 5 5 5 6 6 7 9 9 9
22 21 20 19 20 20 21 23 24 23 21 17 15 15 15 16 18 18 15 15 15 14 14 15 15 13 12 13 10 9 10 11 12 12 10 8 8 8 7 7 5 5 7 7 7 7 8 9 6 5 5 5 5 4 5 6 7 8 9 8 8 8
23 22 20 19 20 20 21 23 22 20 18 15 15 15 16 18 19 17 15 14 14 12 12 14 14 12 11 13 11 9 10 11 11 11 9 7 8 8 8 7 4 6 9 8 6 7 8 7 4 5 4 4 4 5 6 7 7 8 8 6 6 7
25 23 21 20 21 21 20 21 19 17 16 16 16 15 17 18 17 16 15 14 13 12 12 11 11 11 12 14 12 9 10 11 10 10 8 7 8 9 8 6 6 8 9 7 6 7 7 5 3 3 4 4 4 5 7 7 7 6 6 5 6 6
26 26 24 22 21 21 21 21 18 16 17 17 16 16 17 17 15 15 14 14 14 13 12 11 11 13 14 13 11 9 9 9 9 9 8 8 9 9 8 7 7 8 8 7 6 6 6 3 2 3 3 4 4 4 5 6 6 6 5 6 6 6
28 27 24 20 19 20 22 20 15 15 17 17 18 18 17 17 15 14 14 14 14 13 12 11 11 13 15 12 10 10 9 9 8 7 7 9 10 9 7 7 7 7 8 7 6 6 5 4 3 3 3 3 3 4 5 6 6 6 7 7 7 7
27 22 19 18 19 20 21 18 13 16 18 17 19 18 17 17 16 14 14 13 12 11 11 11 11 13 14 11 10 11 11 9 7 7 8 9 10 9 7 6 7 7 8 7 6 6 4 4 3 2 3 3 3 4 5 5 5 6 7 7 7 7
20 17 18 20 20 20 21 20 16 18 20 19 19 18 17 15 13 14 14 12 11 10 11 11 11 12 13 10 10 11 11 9 7 7 8 9 10 9 7 7 7 8 8 7 6 6 4 3 3 3 3 3 3 4 5 5 5 6 7 7 7 7
20 23 24 22 20 20 21 20 19 20 21 20 19 19 19 16 13 14 13 11 10 10 11 10 10 11 12 12 11 10 10 8 7 8 9 9 10 9 8 7 7 8 9 7 6 6 5 3 3 4 3 3 3 4 5 5 6 6 7 7 7 6
24 27 24 19 17 19 20 21 22 22 21 20 19 19 19 18 15 15 14 12 11 12 11 10 11 12 13 13 11 9 9 9 8 9 10 10 10 9 8 8 8 10 9 8 7 7 6 4 4 4 3 3 3 3 3 4 5 6 6 6 6 6
26 25 21 18 16 17 19 20 20 20 20 20 19 19 18 17 16 16 15 13 12 13 12 11 11 12 12 11 9 8 8 10 10 10 11 10 10 10 9 9 10 11 10 9 8 7 6 5 4 4 4 4 3 2 2 2 3 4 5 6 6 6
28 26 21 17 14 14 17 19 18 17 18 19 19 18 17 17 17 18 17 14 14 13 13 13 12 12 12 10 8 8 10 11 11 12 12 11 11 11 10 10 10 10 10 9 8 7 6 6 5 5 5 5 4 3 1 1 2 2 3 4 5 5
28 25 21 17 14 14 15 17 19 18 19 19 19 19 18 18 18 19 18 15 15 13 13 14 13 12 12 10 9 10 11 13 13 13 12 12 11 11 11 10 10 10 10 9 8 7 7 6 6 6 6 6 5 4 2 2 1 1 2 3 3 3
29 25 23 21 16 16 18 17 18 20 21 19 18 19 19 18 18 20 20 17 16 15 13 13 12 11 11 11 11 11 13 14 14 13 12 12 11 11 10 10 10 10 9 8 8 7 7 7 6 6 6 6 5 5 5 4 2 0 1 1 1 2
28 25 23 22 19 18 18 18 18 18 20 20 19 18 18 18 18 19 20 19 18 17 15 13 13 12 12 12 13 13 14 15 14 12 12 11 11 10 10 9 9 9 8 8 8 7 7 7 6 6 6 6 6 6 6 5 4 2 2 1 1 1
29 26 21 22 23 21 18 17 17 17 17 18 19 18 17 18 20 20 20 20 20 19 17 15 14 14 14 13 14 14 15 15 13 12 11 11 10 10 9 9 10 9 8 8 8 7 7 7 6 6 6 7 7 7 7 7 6 5 4 3 3 3
31 28 23 21 21 20 20 17 15 15 15 16 16 16 17 18 21 22 22 21 21 20 18 16 15 16 16 15 15 16 16 15 13 12 11 10 10 10 10 10 10 8 8 9 8 8 7 6 6 6 6 7 8 8 8 7 7 5 5 4 4 4
30 29 26 26 25 23 22 20 17 15 16 16 16 16 17 18 20 23 22 21 22 21 18 16 15 16 16 16 16 17 16 14 13 13 12 11 11 11 11 10 9 9 9 10 9 8 7 6 6 6 6 7 8 8 8 8 7 6 5 5 4 4
31 29 27 28 28 25 24 22 19 17 17 19 20 19 18 18 19 21 22 21 21 19 18 17 17 16 17 17 17 17 15 14 14 14 13 12 12 12 11 10 9 9 10 10 9 8 7 6 6 6 6 7 8 8 8 8 7 6 5 5 5 5
34 33 32 29 26 24 23 22 20 18 17 19 22 22 19 18 18 19 21 22 20 18 17 18 19 19 19 19 18 17 15 14 15 15 13 12 12 12 12 11 10 10 11 10 9 8 7 6 6 6 6 7 8 7 7 7 7 6 6 5 5 5
33 33 32 30 27 26 24 22 20 19 17 18 19 19 18 17 17 18 20 21 20 17 17 18 19 20 19 19 18 17 14 14 16 15 14 13 13 13 12 11 11 10 10 10 10 9 7 7 7 6 7 8 8 7 7 7 6 6 7 6 6 6
30 30 29 28 27 25 22 22 22 21 19 15 11 11 13 15 15 17 20 21 19 17 16 17 17 18 18 19 19 17 15 16 17 17 16 15 14 13 12 12 12 11 11 11 11 9 8 8 7 6 7 9 9 9 9 9 8 8 8 8 8 7
27 28 25 23 23 20 17 20 23 22 20 18 15 13 12 13 14 16 18 20 19 16 16 16 17 17 18 19 20 18 17 18 19 19 17 16 14 14 13 13 12 12 11 11 11 10 9 9 8 7 8 9 10 10 9 9 9 9 9 9 9 8
29 27 21 16 17 16 14 16 19 18 17 20 24 22 15 11 12 15 18 19 19 17 16 16 17 18 19 20 21 20 19 19 20 19 18 16 15 14 14 13 12 12 12 12 12 11 10 10 9 8 9 9 10 10 9 10 9 9 9 9 9 10
29 26 18 12 12 11 11 13 15 15 15 17 22 24 20 16 13 14 17 18 18 18 16 15 16 19 20 21 21 20 19 20 21 20 18 17 15 15 15 14 13 12 12 12 12 12 12 11 10 9 10 10 11 11 11 10 10 9 9 10 11 12
29 23 14 12 11 9 9 12 13 13 14 15 20 22 23 21 17 16 18 18 18 17 17 16 16 18 21 22 22 20 20 21 21 20 19 17 16 16 16 15 14 13 13 13 13 13 13 12 11 11 11 11 12 12 12 11 11 11 11 12 12 13

ECMWFFLT2_500_spd_069.txt.gz
Wind_Speed
16 16 16 17 17 17 18 20 23 25 27 28 28 28 28 28 27 26 25 24 22 20 17 15 14 13 14 15 15 16 16 15 14 12 12 12 12 12 11 10 8 6 3 2 5 7 7 4 3 3 3 5 5 4 3 3 4 4 4 4 5 5
16 16 17 18 19 19 21 23 25 26 27 27 27 27 28 27 26 26 25 23 21 18 16 15 14 14 14 15 16 17 17 16 14 13 13 13 13 13 13 12 9 7 3 1 4 7 7 6 4 5 5 6 7 5 4 4 5 6 6 6 5 6
18 18 19 20 21 22 23 24 25 26 26 26 25 26 27 27 27 26 24 22 20 17 15 14 14 15 15 15 16 17 17 16 15 14 14 13 14 14 14 12 10 8 4 1 3 6 7 7 6 6 6 7 7 6 6 6 7 8 8 8 7 7
20 20 21 22 23 24 25 25 25 25 25 23 24 25 26 27 27 25 23 21 18 15 15 15 15 15 15 16 17 17 17 17 17 16 15 14 15 15 14 12 10 9 5 1 3 6 7 7 7 7 7 7 7 7 7 7 9 9 9 9 9 8
21 22 23 24 26 26 26 25 25 24 23 22 23 24 25 26 26 24 22 20 17 15 15 15 15 16 16 17 17 17 16 17 18 17 16 15 16 15 13 12 11 9 5 2 2 5 6 7 8 8 7 7 8 8 7 7 9 10 10 10 8 8
23 25 26 28 29 28 27 25 23 23 23 23 23 24 25 25 24 24 21 19 18 16 15 15 15 16 17 18 18 17 16 16 17 18 17 16 16 15 13 12 11 9 5 2 2 6 6 7 7 8 8 8 8 9 8 7 8 10 11 11 8 7
26 28 30 31 31 29 27 24 23 24 24 24 24 25 25 23 23 22 20 19 20 17 15 16 16 15 16 17 18 17 16 15 16 16 16 15 15 15 13 12 11 9 6 1 2 6 5 6 8 8 8 8 7 7 9 8 8 9 11 13 12 9
28 30 31 32 32 30 26 25 26 25 24 24 25 25 25 24 23 22 21 20 19 18 17 16 16 15 15 16 17 17 16 14 14 15 15 15 15 15 13 12 10 9 7 1 4 6 5 6 8 8 8 8 7 7 8 9 9 9 10 12 14 12
27 30 31 31 31 29 26 28 28 26 25 25 24 25 25 24 23 22 22 22 19 18 18 17 16 14 14 15 16 16 15 14 14 14 15 16 15 14 12 11 11 10 7 3 4 6 6 7 8 8 8 8 7 7 7 7 8 9 8 8 10 10
27 27 29 30 31 28 27 29 29 26 25 25 24 23 24 23 22 22 23 22 20 18 18 18 16 14 14 14 14 15 14 14 15 15 15 16 14 13 12 11 11 11 8 5 5 6 6 7 8 8 8 8 7 6 6 6 7 7 7 6 9 11
28 27 29 30 31 30 29 28 27 25 25 25 24 22 22 22 21 22 22 21 20 18 17 18 16 15 14 13 13 13 13 14 15 15 15 15 14 13 12 11 11 12 9 6 6 6 6 6 8 8 8 8 7 7 7 6 6 7 7 7 10 12
27 27 28 29 29 29 29 28 26 25 23 23 22 22 21 22 21 21 21 20 19 18 17 17 17 15 13 13 14 14 13 13 14 14 14 14 14 13 12 11 12 12 9 7 7 7 6 6 8 8 7 7 7 7 8 7 6 7 8 9 10 11
29 28 28 30 29 27 27 27 26 24 23 22 22 22 22 22 22 22 20 18 18 17 17 17 18 16 14 14 15 15 15 15 16 15 14 15 15 14 13 12 13 12 10 8 7 7 7 7 7 7 7 6 7 7 8 7 7 7 8 9 9 9
30 30 31 33 32 30 28 27 26 23 21 22 23 23 22 21 22 22 20 18 18 18 17 18 18 16 15 15 15 16 16 17 17 16 14 15 15 14 13 13 13 12 11 9 8 8 8 7 8 8 6 6 7 7 7 7 7 6 6 6 6 7
29 31 32 32 31 31 28 26 26 23 21 22 23 22 22 21 21 21 19 18 19 18 18 19 18 16 15 14 15 15 16 16 16 15 15 16 15 14 14 13 13 12 11 10 9 9 9 7 8 7 7 7 7 8 8 7 6 5 4 5 5 6
24 26 30 29 26 25 23 23 25 24 22 22 22 21 20 20 21 21 19 18 19 18 18 19 18 17 15 14 14 15 16 16 16 15 15 16 14 13 14 13 13 12 11 10 10 10 9 8 7 7 8 8 8 8 8 6 6 5 4 5 6 6
23 22 23 26 27 25 22 23 24 23 22 21 21 21 19 18 20 20 19 19 19 18 18 19 19 17 16 15 15 15 15 16 16 14 14 15 13 13 14 13 12 12 11 11 11 11 10 9 8 8 9 8 8 8 7 6 5 5 5 6 6 6
26 22 20 23 25 23 22 21 21 20 19 21 23 22 20 19 19 19 19 18 17 17 17 18 18 18 17 17 16 15 16 17 17 15 15 14 13 14 14 13 12 12 12 12 12 11 10 10 10 11 10 9 8 8 7 6 5 5 5 5 6 5
27 24 22 22 21 19 20 20 20 19 18 20 22 21 21 20 20 19 20 19 17 16 17 17 17 18 18 18 17 16 17 17 17 16 16 14 13 14 14 12 12 13 13 13 12 11 12 11 12 12 11 10 9 8 7 6 6 5 4 5 5 4
28 24 23 22 22 21 19 18 18 17 15 18 20 20 21 20 20 20 20 19 18 16 17 17 17 18 19 18 16 16 17 17 16 16 17 15 14 14 14 12 13 14 14 13 12 12 13 13 13 13 11 10 9 8 7 7 6 5 4 4 4 4
30 25 23 21 18 18 16 15 16 16 16 17 18 19 20 20 21 20 19 18 17 15 15 16 16 17 18 17 16 15 16 17 17 16 17 17 16 15 15 14 15 15 15 14 13 13 13 13 13 13 11 10 9 8 7 7 6 5 5 4 4 5
29 26 26 22 17 18 17 15 16 18 18 19 19 18 19 21 22 20 19 18 16 14 13 14 15 16 16 16 15 16 16 17 17 17 17 17 16 15 15 16 16 15 14 14 14 13 13 13 14 13 12 11 9 8 8 8 7 6 5 4 4 5
28 26 26 26 24 24 20 15 15 15 16 17 19 19 19 20 20 20 19 18 17 15 14 14 15 16 15 15 15 16 17 18 18 18 19 18 16 15 16 17 17 15 14 14 14 13 13 13 14 14 13 11 10 9 9 8 8 6 5 5 4 5
28 26 26 26 25 23 19 14 11 10 12 14 15 16 18 19 20 20 19 18 18 17 16 16 16 16 15 16 16 16 17 19 20 19 19 19 17 17 18 18 16 15 14 14 14 13 13 14 15 14 13 12 11 10 9 8 8 6 6 6 5 6
28 26 26 25 23 21 19 16 12 10 11 12 13 15 16 17 19 20 19 19 18 18 18 18 18 17 16 17 18 18 18 20 20 19 19 20 20 20 20 18 17 16 15 15 14 14 15 15 15 14 13 12 12 11 10 9 9 7 6 6 6 7
27 26 26 26 25 23 22 20 17 14 12 12 14 15 16 16 17 19 20 19 18 18 19 20 20 19 18 19 19 19 19 20 20 19 19 19 21 21 21 19 17 17 16 15 15 16 16 16 16 15 14 13 13 12 11 10 9 9 8 8 8 8
25 24 23 24 25 24 23 21 18 15 15 14 14 15 16 17 18 19 20 20 20 20 21 21 21 20 20 20 19 19 20 21 20 19 18 20 21 21 20 18 18 18 17 17 17 17 16 16 16 16 15 14 14 13 12 10 10 10 10 10 10 10
22 22 21 22 22 22 23 21 18 16 16 16 15 14 15 16 18 20 21 22 23 23 23 23 22 22 22 21 20 19 20 20 20 19 19 21 21 20 19 19 20 20 19 19 19 18 17 17 17 16 15 14 14 13 12 11 11 11 11 11 12 12
20 19 18 19 20 20 20 19 17 15 16 16 16 15 15 16 18 20 21 23 24 25 25 24 24 24 24 23 21 20 20 20 20 20 21 22 22 20 19 21 22 21 20 20 19 18 18 17 17 16 15 15 14 14 14 13 12 12 12 12 13 13
20 18 17 17 17 18 19 19 17 15 15 16 17 18 18 17 18 20 22 23 24 26 26 25 24 25 24 24 22 21 20 20 20 22 23 23 22 21 21 22 23 22 21 20 19 19 18 17 17 17 16 16 16 16 15 13 13 12 12 12 13 13
22 21 19 18 18 18 18 19 17 16 16 17 19 20 21 21 20 20 22 23 25 26 26 25 25 26 26 25 24 22 21 20 21 23 23 24 23 23 23 23 23 23 22 21 19 19 18 18 18 18 17 17 16 16 15 14 13 13 13 13 12 13
25 25 22 21 20 19 19 19 19 18 18 18 19 21 22 23 23 22 23 24 25 25 25 26 27 27 27 27 25 24 22 21 22 24 24 24 24 25 24 24 24 24 23 21 20 20 20 19 19 18 18 17 16 16 15 14 14 14 14 14 13 13
28 28 25 22 21 21 20 20 22 22 21 20 20 20 22 24 24 24 24 25 26 27 26 26 28 28 28 28 27 25 24 23 23 25 24 25 25 25 25 25 25 25 23 22 21 21 21 20 19 19 18 17 17 17 16 15 15 15 15 15 14 14
30 29 27 24 23 24 25 25 25 23 21 21 19 20 23 24 24 24 25 26 27 28 27 26 27 28 28 29 27 25 25 24 24 25 25 25 26 26 26 26 26 25 24 23 22 21 21 20 19 19 19 18 19 18 17 16 16 16 16 15 15 15
28 27 26 25 23 25 29 30 26 22 21 20 19 20 22 24 26 26 25 24 24 24 25 25 26 27 27 28 27 24 23 23 24 25 25 26 27 27 26 26 26 26 25 24 22 21 21 20 20 19 19 19 19 19 18 18 18 18 17 16 16 16
26 25 24 24 24 26 30 31 27 23 23 22 21 21 20 23 26 26 24 24 23 21 22 23 25 25 25 26 26 24 23 25 27 27 26 27 27 27 26 26 27 26 25 24 23 22 21 21 20 20 20 20 20 20 20 19 19 19 18 17 17 18
25 24 24 24 26 28 30 30 28 26 26 26 24 22 21 23 24 25 24 23 22 21 20 21 22 23 23 24 25 24 24 27 29 29 28 29 29 27 26 27 27 27 25 24 22 21 21 21 20 20 20 20 21 21 20 20 20 19 19 18 18 18

ECMWFFLT2_500_spd_072.txt.gz
Wind_Speed
20 19 18 17 17 17 17 16 16 17 17 18 20 21 23 24 25 26 26 26 24 25 25 22 20 18 15 14 13 13 13 13 13 12 11 10 8 9 9 9 11 11 10 9 9 9 8 8 6 6 6 5 5 6 6 5 5 5 6 6 6 6
21 21 19 18 18 18 17 17 17 18 18 20 21 23 24 24 25 25 26 25 24 25 24 21 18 17 15 13 13 13 13 14 14 13 12 11 10 9 9 9 11 12 11 10 10 10 9 8 7 7 7 6 6 7 8 7 7 7 8 8 8 8
21 21 19 18 18 19 19 19 19 20 21 22 22 24 24 24 24 24 25 24 24 24 23 20 17 16 14 13 13 13 14 14 14 14 13 12 11 10 9 9 10 13 12 11 11 10 9 9 8 8 8 6 6 8 9 9 9 10 10 10 10 10
21 20 19 19 19 19 20 20 21 23 23 23 24 25 25 24 23 24 24 24 23 23 22 19 17 15 14 13 12 13 14 14 15 15 14 13 12 11 9 8 9 12 12 12 12 11 9 8 8 8 8 7 6 8 9 10 11 11 11 11 11 11
22 21 20 19 20 20 20 22 24 25 25 25 25 26 26 24 24 25 24 23 22 22 20 17 17 15 14 13 12 13 14 14 15 15 15 14 13 12 9 7 8 11 11 12 13 11 9 8 8 9 9 8 7 7 9 10 11 11 12 12 11 11
25 22 22 22 22 22 23 24 26 27 27 26 27 27 25 24 25 26 25 22 21 21 19 17 17 16 15 14 12 13 13 14 15 16 15 14 13 12 9 7 7 9 10 12 13 12 11 10 8 9 10 9 8 7 8 10 10 10 10 11 12 12
26 24 23 24 25 26 26 26 27 28 28 27 27 27 25 24 25 26 25 23 20 20 18 17 18 17 15 14 13 13 13 13 15 16 15 13 12 11 9 7 7 8 10 11 13 13 12 10 9 9 9 9 8 7 8 8 8 9 10 11 12 14
26 25 25 26 25 26 27 27 28 29 29 29 29 27 25 25 25 26 26 23 20 19 19 18 18 17 16 15 14 13 12 13 14 15 14 13 11 11 10 7 6 8 9 11 13 13 12 11 11 10 8 8 8 8 8 7 7 8 9 10 11 13
23 25 26 26 24 24 26 26 27 29 29 30 30 28 26 25 26 27 26 24 21 19 21 20 18 18 17 16 15 13 12 12 13 13 13 13 12 12 11 8 6 7 9 10 13 13 12 12 12 10 8 8 8 8 8 7 8 8 9 10 10 10
21 24 26 27 25 24 26 25 27 29 29 30 29 27 25 24 26 27 26 24 22 21 22 21 19 18 18 16 15 14 12 12 12 13 13 13 13 13 11 8 6 7 8 10 13 14 13 12 11 10 9 9 9 8 7 7 7 8 9 10 10 9
18 20 22 25 26 25 26 26 27 27 28 29 28 26 24 25 26 27 25 24 22 22 23 21 19 19 18 16 15 14 13 12 12 12 13 14 13 12 11 9 8 8 8 11 14 15 13 12 11 10 10 10 9 8 8 8 7 8 9 10 10 10
18 19 21 25 26 26 28 27 26 26 27 27 26 25 24 25 26 26 24 23 23 23 23 22 20 19 17 15 14 15 15 13 12 11 13 13 12 12 11 11 10 9 9 10 14 15 13 11 11 10 10 10 9 8 8 8 8 8 10 10 11 11
20 21 24 26 28 30 32 30 27 27 29 28 26 24 24 25 26 24 24 23 23 23 22 21 21 19 17 15 15 15 16 16 14 12 13 13 13 12 11 12 12 11 10 11 13 13 12 11 10 11 10 10 9 9 8 8 8 9 10 10 11 11
21 21 21 21 23 26 29 29 28 28 30 31 28 25 24 25 25 25 25 24 24 24 22 21 21 19 17 17 16 16 17 17 16 15 14 14 14 13 12 13 13 11 11 11 12 12 11 10 11 11 10 10 10 9 9 8 8 9 10 10 10 9
22 20 18 17 17 19 21 22 25 26 28 31 29 26 25 25 25 26 26 24 24 23 21 21 20 18 17 17 17 16 17 17 17 17 16 15 15 13 12 13 13 12 12 11 11 11 11 10 10 11 11 11 10 10 9 9 9 9 9 9 9 9
22 21 19 18 15 15 16 16 19 24 27 27 24 25 25 24 25 26 25 24 24 22 20 19 18 17 16 16 16 16 16 17 18 17 16 15 14 13 13 14 13 13 12 12 11 11 11 10 10 11 12 12 11 9 9 9 9 9 9 9 10 10
22 22 21 21 18 16 16 15 17 22 26 25 22 23 24 23 24 25 23 23 23 22 20 18 17 17 17 17 17 17 17 17 17 17 16 15 14 13 13 14 13 13 12 12 11 11 11 11 11 12 12 12 10 9 9 9 9 9 9 10 11 10
23 25 24 22 19 18 20 20 20 22 21 20 20 21 22 22 23 22 21 22 23 21 20 18 17 17 17 17 18 17 17 18 17 17 16 15 14 13 13 14 14 13 13 12 12 11 11 11 12 13 13 11 9 9 9 10 11 10 9 10 11 10
23 25 25 23 19 17 19 20 22 21 17 16 18 18 20 22 22 21 21 23 22 19 18 17 17 16 16 16 18 18 18 18 18 16 16 16 15 13 13 15 14 12 13 13 12 11 11 12 13 14 13 11 10 10 10 11 11 10 9 11 11 10
23 24 25 23 18 15 16 17 19 19 15 13 15 16 18 20 21 21 21 22 21 18 17 17 16 15 15 16 18 18 18 18 18 17 17 17 16 14 14 14 13 13 13 14 13 11 11 12 14 15 14 12 11 11 12 12 12 10 10 11 10 10
23 24 24 22 16 13 14 13 14 15 13 12 13 14 16 17 19 20 19 20 20 19 18 18 18 17 16 17 18 18 18 19 19 18 18 18 17 16 15 14 14 15 15 14 13 12 12 14 15 15 14 13 12 12 12 12 12 11 11 11 10 10
24 22 22 21 16 13 14 14 14 17 15 13 14 14 15 17 18 17 18 19 20 19 18 19 19 17 16 17 18 18 18 18 19 18 18 18 17 17 18 17 16 16 15 15 14 13 13 15 15 15 15 14 13 12 13 13 12 12 11 11 11 10
23 21 20 20 19 16 16 18 18 19 17 13 11 12 14 16 16 16 18 20 20 19 19 20 20 18 16 17 18 18 18 18 19 19 19 19 18 18 18 18 17 17 16 15 14 14 14 15 16 15 15 15 13 13 13 13 12 12 12 11 11 10
21 20 19 19 19 17 19 21 18 16 16 13 9 9 11 15 17 18 20 22 23 23 22 23 22 19 18 18 19 19 19 19 20 20 20 20 19 18 18 18 18 18 17 16 15 14 14 16 16 16 16 16 15 14 14 13 13 13 12 12 11 10
18 19 18 17 17 16 17 21 19 15 16 16 13 10 11 14 18 20 22 24 25 25 25 24 24 22 20 20 21 20 20 20 20 20 20 20 20 19 18 19 19 19 17 16 16 15 16 17 17 17 17 17 16 15 14 14 14 14 13 13 12 10
17 18 18 16 15 15 15 17 18 15 16 18 17 15 13 14 16 19 21 23 24 25 25 24 24 24 23 23 23 22 21 20 20 20 21 21 20 19 20 20 21 20 17 16 17 17 18 18 17 18 18 17 16 14 14 15 15 15 15 14 13 12
15 14 15 14 14 14 13 15 16 16 16 16 16 15 14 14 15 17 19 20 21 23 24 25 25 26 26 25 24 24 22 21 20 21 21 20 19 20 20 21 21 19 17 17 18 19 19 18 17 18 18 17 16 15 15 16 16 16 16 15 14 13
10 9 11 11 12 13 13 15 16 17 17 17 17 15 14 14 16 17 19 19 20 21 23 25 26 27 27 27 26 25 24 23 22 22 21 20 20 21 21 21 21 20 18 19 21 21 20 18 18 18 18 17 16 16 17 17 17 17 17 16 15 15
16 13 12 13 12 12 13 15 16 17 18 18 19 18 16 16 16 17 19 19 20 21 23 25 26 26 26 27 27 27 26 25 24 23 22 21 21 21 21 21 22 21 20 21 22 22 20 19 19 18 18 18 17 17 18 18 18 17 16 16 16 15
20 15 14 16 16 14 14 15 16 17 18 19 20 21 20 18 17 18 19 19 20 21 23 25 26 27 26 27 28 28 28 27 26 24 23 23 22 22 23 23 22 21 21 23 23 21 21 20 19 18 19 19 18 19 19 18 18 17 17 17 16 16
23 17 16 19 18 17 16 17 18 18 20 21 22 23 23 21 20 20 20 21 21 22 24 25 26 27 27 28 28 29 29 29 27 25 23 23 24 24 24 24 24 22 23 24 23 21 21 20 19 19 20 20 20 20 19 19 18 18 18 18 17 17
24 19 19 21 22 21 19 19 20 20 21 22 24 24 24 24 24 23 23 23 22 23 24 25 27 28 28 29 29 29 30 30 28 25 24 25 26 25 25 25 25 24 24 24 22 21 21 21 20 20 20 20 20 20 20 19 19 18 19 18 18 19
27 23 22 23 25 24 22 22 22 23 23 24 25 25 26 26 26 27 26 25 24 24 24 26 28 29 29 29 29 30 31 30 29 27 26 26 27 26 26 25 25 26 25 24 22 21 22 22 21 21 20 20 20 21 20 20 19 19 19 19 20 19
29 27 24 25 26 25 24 25 25 26 26 26 27 26 27 28 28 28 27 27 27 26 25 27 29 28 29 29 29 31 32 31 30 27 26 26 27 26 25 25 25 26 27 25 22 22 22 22 22 21 21 21 21 21 21 21 20 19 19 20 20 20
30 29 27 27 27 25 25 26 27 28 28 28 29 27 26 27 27 26 26 26 28 28 26 27 29 29 28 28 29 32 33 31 29 28 27 26 26 25 25 27 27 26 26 26 23 23 23 23 22 22 22 22 21 21 21 21 20 19 19 19 20 21
30 29 28 28 27 26 24 25 27 28 27 28 29 27 25 25 25 25 27 29 30 31 28 27 29 31 29 30 32 33 31 31 31 30 29 27 26 25 26 28 29 27 27 26 25 25 25 24 23 23 22 22 21 22 22 22 21 20 20 19 20 21
28 26 26 28 27 26 24 24 26 28 28 29 30 28 25 24 25 25 28 30 31 32 30 28 28 30 30 31 33 32 30 31 30 30 29 28 27 27 28 28 28 28 28 27 26 26 26 25 24 23 23 22 22 22 22 22 22 21 20 20 21 22

ECMWFFLT2_500_spd_075.txt.gz
Wind_Speed
22 21 21 21 22 21 21 21 21 22 22 22 21 19 19 19 19 19 20 22 24 24 23 23 23 23 21 17 14 10 8 6 5 4 6 9 12 11 10 11 10 8 8 10 12 11 11 11 10 10 9 8 7 7 7 7 7 8 8 8 9 9
22 21 21 21 21 21 21 21 22 23 23 22 20 19 19 19 19 20 21 23 25 24 23 23 23 23 20 17 15 12 9 7 5 4 5 8 11 11 10 11 11 10 8 10 11 11 12 12 11 10 10 9 8 9 9 9 9 10 10 10 11 11
25 23 22 21 21 20 20 21 22 23 22 21 20 20 19 20 21 22 23 25 25 24 23 22 22 22 20 17 16 14 10 8 6 5 5 6 9 11 11 10 11 11 10 11 11 11 12 12 11 11 10 9 9 10 10 10 10 11 12 12 13 13
26 24 22 21 20 20 20 21 22 22 22 21 21 20 20 21 22 24 24 25 25 24 22 22 21 21 19 17 16 15 12 9 7 6 5 6 8 11 11 10 10 10 11 12 11 11 12 12 12 11 10 10 10 10 11 11 11 11 13 14 14 14
25 23 21 21 21 20 21 22 22 22 22 21 22 22 22 23 24 25 25 25 25 24 22 21 20 20 18 18 17 17 14 10 8 7 6 6 7 9 11 11 10 11 11 12 12 12 13 12 11 11 11 10 10 11 12 12 11 11 12 14 14 14
23 23 21 21 21 21 22 22 22 23 23 23 23 23 23 24 25 25 25 25 24 23 22 21 20 19 18 18 18 17 15 13 10 9 8 7 8 8 10 11 11 11 12 12 12 13 14 14 12 11 11 10 9 10 11 12 11 11 12 13 13 14
21 23 22 20 19 20 22 22 22 23 23 24 24 24 24 24 25 25 26 26 24 23 22 21 20 19 18 19 19 18 17 15 13 10 9 8 8 8 9 11 12 12 12 13 13 13 14 14 13 11 11 10 10 9 9 10 10 11 11 12 12 13
21 22 22 19 18 19 22 22 22 22 22 23 24 24 24 24 25 26 27 26 25 24 23 21 19 18 18 19 19 18 18 17 14 12 10 9 9 9 9 11 12 13 13 14 14 14 15 14 13 12 11 10 10 10 10 10 10 11 11 11 12 12
19 21 22 19 18 19 22 23 23 22 21 23 24 24 24 25 26 28 28 27 27 26 23 21 19 18 18 20 20 19 19 18 16 13 11 10 10 10 9 10 12 13 14 14 15 15 15 14 13 12 11 10 11 11 10 10 10 11 11 11 11 11
17 19 20 20 19 19 21 23 23 23 23 24 25 25 25 25 25 27 29 28 28 26 23 21 20 19 20 21 21 20 20 19 17 15 13 11 11 10 9 10 12 13 14 15 15 15 15 14 13 12 11 11 12 11 11 11 11 11 11 11 11 11
16 17 18 19 19 19 19 20 22 23 24 25 25 24 24 24 24 25 27 28 27 26 24 22 21 20 21 21 21 21 21 19 17 16 14 12 11 10 10 11 13 14 14 15 15 15 14 13 13 12 12 12 12 12 11 11 11 12 12 12 12 12
15 15 16 16 17 17 17 19 22 25 27 28 27 26 25 25 24 24 25 26 26 25 23 22 21 21 21 21 22 22 21 20 18 16 14 13 11 11 11 11 13 14 14 14 14 14 13 13 13 12 12 12 12 12 11 11 12 12 12 12 12 12
13 14 15 16 16 17 17 18 21 24 26 27 28 27 27 26 26 26 25 25 26 25 22 21 21 20 20 21 22 22 23 21 18 16 15 13 12 12 12 12 12 13 13 14 13 13 13 13 13 13 13 13 12 12 12 12 12 12 12 12 12 13
13 14 16 17 17 16 15 15 17 18 19 21 22 24 25 26 26 27 26 25 25 24 21 20 20 19 19 20 22 23 24 22 19 17 16 15 14 14 13 12 12 12 13 13 12 12 12 13 13 13 13 13 13 12 13 13 12 11 11 12 12 13
14 15 17 18 18 18 16 16 18 18 18 17 17 19 23 26 26 25 25 25 25 24 22 21 20 19 19 20 22 24 24 23 21 18 17 17 17 17 16 14 13 12 12 12 12 12 12 13 13 14 14 14 13 13 13 13 12 11 11 12 12 13
14 15 17 18 18 18 18 20 22 23 23 21 20 20 23 25 25 23 22 23 23 23 22 21 21 19 19 20 22 23 24 23 21 19 18 18 18 18 18 17 14 12 12 12 12 12 12 13 14 14 14 14 13 14 14 13 11 11 11 11 12 13
13 14 16 17 18 19 19 20 22 23 25 25 23 21 21 20 20 20 20 22 23 23 22 22 22 20 20 20 22 23 24 22 21 19 18 18 18 18 19 18 15 13 13 13 13 13 13 14 14 14 14 14 14 14 14 12 11 11 11 12 12 12
14 14 16 17 18 20 20 20 20 21 23 23 21 20 20 16 16 18 20 21 21 22 22 22 22 21 20 20 22 23 23 22 21 19 19 18 18 18 18 18 15 14 14 14 13 13 14 14 14 15 14 14 14 14 13 13 11 11 12 13 12 12
18 17 17 18 18 19 20 20 20 21 21 20 17 17 18 16 15 17 19 19 20 21 21 21 21 21 21 21 21 22 23 22 21 20 19 18 17 17 18 17 15 14 14 14 14 14 14 14 15 15 15 15 15 14 13 13 12 12 12 12 12 12
20 19 19 19 18 18 19 20 20 20 20 17 14 14 15 16 15 17 18 18 20 21 20 21 21 20 20 20 20 21 21 22 22 22 21 19 17 17 18 17 15 14 14 15 15 15 15 15 15 15 15 14 14 15 14 13 13 13 13 12 12 12
20 20 21 20 18 18 18 19 19 19 18 16 14 12 13 15 17 16 16 16 18 19 20 20 20 20 19 19 19 19 20 21 23 23 22 20 17 18 19 18 17 16 15 15 16 15 15 15 15 15 15 14 14 15 14 14 14 14 13 13 13 12
19 20 20 19 18 18 18 18 19 19 18 16 15 12 11 14 17 16 15 15 16 18 19 20 20 20 20 20 20 19 20 21 23 23 22 20 18 19 20 20 19 18 16 15 16 16 15 16 16 15 14 14 14 15 15 15 15 14 14 14 13 13
15 16 18 19 19 19 18 18 19 19 19 18 16 13 10 11 14 15 15 16 17 18 19 20 21 22 22 21 22 21 20 22 23 23 22 20 19 20 21 20 20 19 17 17 17 17 16 16 16 15 15 15 15 15 15 15 15 15 15 14 14 14
16 18 19 18 18 20 20 19 19 19 19 20 19 16 11 9 10 12 14 17 18 18 20 22 23 22 21 21 22 21 20 22 24 23 22 20 20 20 21 20 19 18 18 18 18 18 16 16 16 16 16 16 16 16 16 15 15 16 15 15 15 14
17 18 19 16 16 17 19 21 22 21 20 20 20 18 15 13 11 11 14 16 17 18 21 23 24 23 22 22 23 22 21 22 24 23 21 20 20 20 21 20 19 18 18 19 19 18 17 18 17 17 18 18 17 17 16 16 17 17 16 16 16 15
18 18 18 16 17 15 14 17 22 23 23 21 20 19 19 18 17 16 16 16 17 20 22 23 24 24 24 24 24 23 22 23 24 22 20 20 20 20 21 21 21 20 20 20 18 18 19 19 18 18 19 19 18 17 17 17 18 18 17 16 16 15
21 21 22 20 20 15 10 11 16 21 24 24 23 21 21 21 23 22 18 16 17 21 24 24 24 24 25 25 25 24 23 24 24 22 20 20 21 21 22 22 22 21 21 20 18 19 20 19 19 19 19 19 19 19 18 18 19 19 18 16 16 15
22 23 24 22 18 15 12 10 11 15 19 24 26 25 24 24 23 21 17 17 19 22 25 26 26 26 26 25 25 25 25 25 25 24 22 22 22 21 22 22 21 22 23 22 21 21 20 20 19 20 19 20 20 20 20 20 20 20 19 17 16 16
22 23 25 22 17 15 14 13 12 14 16 20 26 28 28 26 23 19 17 20 22 22 24 25 26 26 24 25 26 26 26 26 26 25 24 24 23 22 22 22 21 23 25 24 23 22 21 21 19 19 20 20 21 22 22 22 21 20 19 18 17 17
22 24 26 27 22 17 17 18 17 17 18 21 25 30 30 28 26 23 21 23 24 23 23 24 26 25 24 25 28 28 27 27 27 27 26 25 24 23 23 23 23 24 25 25 24 23 23 22 19 19 20 22 22 23 22 22 21 20 20 19 18 18
22 23 25 27 28 25 23 22 20 20 23 25 27 30 31 30 29 26 25 27 27 25 25 26 26 26 25 26 27 28 28 27 27 26 26 25 25 24 25 25 24 25 26 26 25 24 24 23 20 20 21 23 23 23 22 22 21 21 20 19 19 19
23 24 24 25 27 29 27 23 22 23 26 28 31 33 33 30 29 28 27 29 28 25 26 27 28 27 27 27 28 28 27 27 27 26 26 26 27 27 27 26 25 26 27 27 25 24 24 23 21 21 22 22 23 22 22 22 22 21 20 20 20 19
25 24 25 27 26 27 27 24 24 26 28 30 32 33 33 30 29 29 29 30 28 25 26 28 28 28 28 28 28 29 28 28 28 28 28 29 30 29 28 27 26 27 27 26 25 24 24 23 22 22 22 22 22 22 22 22 23 22 21 20 20 20
25 25 26 28 27 26 27 28 29 30 31 31 31 31 30 31 33 32 31 31 30 27 27 29 30 30 30 29 29 30 29 28 28 29 29 31 33 30 28 28 28 30 29 26 26 26 25 23 23 23 23 22 21 22 22 23 23 22 21 21 20 20
26 26 27 29 29 28 28 31 33 33 33 33 32 30 28 29 33 34 32 32 32 30 30 32 33 32 32 32 30 30 29 28 29 29 29 31 32 31 30 30 30 32 30 27 28 27 25 24 24 23 23 22 21 22 22 23 23 22 22 21 21 21
28 29 30 31 32 31 31 32 33 34 34 34 33 30 28 27 29 32 33 32 32 32 32 34 36 35 33 33 32 30 29 29 29 30 29 30 31 32 32 32 31 31 30 30 29 27 26 25 24 23 23 22 21 22 22 23 22 22 22 22 22 22
29 29 31 31 30 31 31 31 31 33 33 33 32 30 28 27 28 31 32 32 32 33 33 34 37 37 35 33 33 32 30 29 29 30 30 29 30 33 34 33 32 31 32 31 30 28 26 26 24 23 23 23 22 22 22 22 22 22 22 22 23 23

ECMWFFLT2_500_spd_078.txt.gz
Wind_Speed
21 21 22 22 21 20 18 18 18 19 19 20 21 21 21 20 20 20 20 20 20 21 23 23 21 19 18 17 17 15 14 14 14 13 13 13 12 9 9 9 9 9 9 8 8 9 10 10 10 10 10 10 10 9 9 10 11 12 12 12 11 11
23 23 24 23 22 20 19 18 18 19 20 20 20 21 21 20 20 20 20 20 21 22 23 24 22 20 18 17 16 15 14 14 14 14 13 13 13 12 10 10 10 10 10 9 7 9 10 10 10 11 11 11 10 10 10 11 12 13 13 14 13 13
25 26 25 23 22 20 19 18 19 19 20 20 20 20 20 20 20 20 20 21 21 22 23 24 23 21 19 17 16 14 14 14 14 14 14 14 14 14 12 11 10 10 11 9 8 9 10 11 11 11 12 11 11 11 11 11 13 13 14 14 14 14
28 26 23 23 22 20 19 19 19 20 20 20 20 21 21 21 21 21 21 22 22 23 23 24 24 23 20 18 16 14 14 14 14 14 14 15 15 15 14 13 11 10 11 10 9 10 10 11 11 12 12 12 11 11 11 12 13 14 14 14 14 14
25 23 22 23 21 20 19 19 19 20 19 20 20 21 21 22 22 21 22 23 24 24 23 24 25 24 22 19 16 15 14 14 14 14 15 16 16 16 15 14 13 12 11 11 11 11 11 12 12 12 13 12 12 12 12 12 13 13 13 13 13 14
23 23 23 22 21 21 19 18 19 19 19 20 20 21 22 22 23 23 23 24 24 24 24 25 25 25 23 21 18 16 15 14 15 15 15 16 17 17 15 14 15 14 12 12 12 12 12 12 12 12 13 13 13 12 11 12 12 12 12 12 13 14
25 23 21 21 21 21 18 17 18 19 19 20 20 21 22 22 23 24 24 24 24 24 25 25 25 25 23 22 19 17 16 15 16 16 16 16 17 18 16 14 15 15 14 14 13 13 13 13 13 12 12 12 13 12 11 11 11 11 11 12 13 13
22 20 18 19 21 21 20 19 19 19 20 21 21 22 22 22 23 24 24 25 24 25 25 25 25 25 23 22 20 18 17 16 16 17 16 16 17 19 18 16 15 15 16 16 15 14 14 14 14 13 12 12 12 11 10 11 11 11 11 12 12 13
16 16 16 17 19 21 21 20 19 20 21 22 23 23 23 23 24 24 24 25 25 25 25 25 25 24 23 23 22 19 18 17 17 17 17 16 17 19 19 17 15 17 17 16 16 15 14 14 15 14 12 11 11 11 10 11 11 11 11 11 12 12
17 15 13 14 16 19 19 19 19 19 20 21 22 22 24 25 25 25 23 24 24 24 24 23 24 24 23 23 23 21 19 18 17 18 17 16 17 18 19 18 17 18 18 17 17 16 15 15 15 14 12 11 11 11 11 11 11 12 11 12 12 12
18 15 14 14 15 16 17 17 17 18 19 20 21 23 25 26 27 27 25 24 23 23 22 22 22 22 23 23 23 21 19 19 18 18 18 17 17 18 19 19 19 19 19 18 17 16 15 15 14 14 12 11 12 12 12 12 12 12 11 12 13 13
17 16 15 15 15 15 16 16 17 17 18 19 20 21 23 25 26 27 27 27 25 24 24 23 22 22 22 22 22 20 19 18 18 18 18 18 18 18 18 20 20 20 20 18 17 16 15 14 14 14 13 12 12 13 13 12 12 11 12 13 13 12
16 16 15 15 15 15 16 17 17 17 18 18 17 17 19 19 20 21 24 26 26 26 26 25 22 21 21 22 21 20 18 18 18 17 17 18 19 19 18 19 20 21 20 19 17 16 15 14 14 14 13 13 13 13 13 13 12 11 12 13 13 12
15 16 16 16 16 15 16 17 17 17 18 18 16 17 17 17 17 18 20 23 26 27 27 27 24 21 21 21 20 19 18 18 18 18 17 19 20 20 18 18 20 22 21 19 18 16 15 14 14 14 13 13 14 14 14 13 12 12 12 13 13 13
17 17 18 17 16 16 17 17 18 18 20 21 21 22 21 21 21 21 22 23 25 27 26 26 24 22 21 21 21 20 19 18 18 18 18 19 20 21 20 19 20 21 21 20 18 16 15 14 15 14 14 14 15 15 14 13 12 12 13 13 13 12
19 18 18 17 16 16 17 17 18 19 21 22 23 25 25 25 25 23 23 23 23 25 26 24 24 23 22 22 22 21 20 19 19 19 18 18 20 21 21 21 22 22 22 21 19 17 16 15 15 14 14 15 16 16 15 14 13 13 13 13 12 12
19 18 16 15 15 16 16 16 18 20 21 22 23 24 24 25 25 24 23 22 21 23 24 23 23 23 23 23 23 22 21 20 19 19 18 18 20 22 22 22 23 23 23 22 20 18 17 16 15 15 15 16 16 16 15 14 13 13 13 12 11 12
17 14 13 13 14 15 17 19 20 21 22 23 23 24 23 23 24 24 24 22 20 20 22 22 23 24 24 23 23 23 22 21 20 19 19 19 21 22 22 22 23 23 23 22 20 19 18 17 16 16 16 16 17 16 16 15 13 13 13 12 12 12
15 12 11 11 12 14 17 20 22 22 23 23 23 24 23 23 24 24 24 22 19 19 22 23 23 24 23 23 22 22 22 21 20 20 21 21 22 22 22 22 22 22 21 22 20 19 18 17 17 17 17 17 17 16 16 16 15 13 13 12 12 13
15 12 12 11 13 14 16 19 21 22 23 23 23 23 23 22 23 23 23 22 19 20 23 23 23 23 23 22 22 22 22 22 22 22 22 23 23 23 22 21 22 21 21 21 20 19 18 17 17 17 17 17 17 17 17 17 16 14 13 13 13 14
18 16 16 17 18 17 17 18 19 21 22 24 23 23 22 22 21 21 22 22 21 21 23 24 25 24 23 22 22 22 22 22 23 23 23 24 24 23 21 21 21 21 22 22 20 18 18 17 17 18 17 17 17 18 17 17 16 15 15 14 14 14
20 16 14 17 18 18 16 15 15 17 19 22 24 24 23 22 21 20 21 22 23 23 23 24 25 25 23 22 23 23 23 23 24 24 24 23 23 23 21 21 22 22 23 22 19 18 17 17 17 17 17 17 18 18 17 18 17 16 16 15 14 14
13 12 14 19 20 17 13 11 11 11 14 17 21 24 26 25 23 20 19 21 24 25 24 23 24 26 25 24 25 24 24 25 25 24 24 23 23 23 22 22 23 23 24 23 20 19 17 16 16 17 17 17 18 18 18 18 17 17 16 15 14 14
17 20 23 24 21 17 14 13 14 15 16 17 18 22 25 27 27 23 19 20 23 26 25 24 25 26 25 25 26 26 26 27 26 24 24 24 24 24 23 23 23 23 24 23 22 20 18 17 17 17 17 17 17 18 18 18 17 17 17 15 14 14
25 27 26 24 21 20 19 18 19 19 19 18 18 20 23 26 28 27 25 22 22 25 26 26 26 26 25 26 27 26 24 25 27 25 25 25 25 24 24 24 23 23 23 23 23 21 19 18 18 18 19 18 17 18 19 18 18 18 18 16 15 15
25 25 24 22 21 22 22 21 20 18 17 18 18 19 23 26 27 27 29 27 25 25 26 27 27 26 26 26 26 25 23 24 27 26 25 25 25 24 24 24 23 22 23 24 22 21 20 19 18 19 19 18 17 18 19 19 19 19 18 17 15 15
22 22 21 19 20 22 22 20 19 18 19 20 20 20 22 26 28 26 27 29 29 27 27 27 28 28 27 25 24 24 25 25 26 27 26 25 25 25 24 24 23 22 24 25 22 21 21 20 19 19 20 19 18 19 20 20 20 19 19 17 16 16
20 20 19 18 18 20 20 18 17 18 19 20 22 22 22 26 30 29 28 29 29 27 28 28 29 29 29 27 26 26 27 27 26 27 27 26 25 25 25 25 23 22 24 25 23 22 22 21 20 20 21 20 19 20 20 20 20 20 20 18 17 17
19 20 19 18 18 19 20 19 18 19 21 22 23 25 27 29 30 32 32 32 30 29 28 29 31 31 29 29 29 28 28 29 27 26 27 27 26 25 25 25 24 23 24 25 24 23 22 22 22 22 22 21 21 21 20 20 20 21 20 19 18 18
20 19 19 19 20 20 22 24 24 25 25 26 26 27 30 32 33 34 35 34 33 31 29 29 31 30 29 29 30 29 29 30 29 28 28 28 27 27 27 25 24 25 25 25 24 23 23 23 23 23 23 23 22 21 21 21 21 21 21 20 19 19
21 21 20 20 21 21 22 25 27 28 29 30 31 31 32 35 36 37 37 35 33 31 29 31 31 29 29 30 30 30 30 31 31 31 30 29 29 29 28 27 26 26 25 24 24 24 23 23 23 24 24 25 24 23 22 21 21 22 21 21 20 20
23 23 23 23 24 24 24 26 28 29 31 32 33 34 34 36 37 38 38 37 35 31 30 32 33 29 28 31 32 31 31 30 30 32 32 32 30 29 28 28 27 26 25 26 26 25 23 22 24 25 25 25 24 23 23 21 22 22 22 21 21 20
24 25 25 26 26 27 26 27 28 30 32 34 34 33 34 36 37 39 39 38 37 34 32 33 34 32 29 29 31 31 31 30 30 31 33 34 33 30 26 26 27 26 26 28 28 26 25 25 25 26 26 26 25 24 23 22 22 22 22 22 21 21
26 26 27 28 28 28 29 29 30 31 33 34 34 33 34 35 37 39 39 38 37 36 36 36 35 34 32 30 29 30 30 30 30 31 32 33 35 33 28 24 26 26 26 27 28 27 28 28 26 26 26 26 25 25 24 23 23 22 23 23 22 21
27 28 28 29 29 30 31 32 32 33 34 35 35 35 36 37 40 41 40 38 37 36 36 38 38 35 35 34 31 29 29 29 30 31 32 33 33 34 31 27 26 26 26 26 28 28 29 29 27 25 26 26 25 25 24 24 24 24 24 23 22 20
27 28 28 29 30 31 32 33 34 34 35 37 38 38 38 38 40 41 39 37 37 36 36 38 39 37 36 36 34 32 32 31 31 31 32 33 32 32 33 30 28 28 28 28 30 30 29 29 28 26 26 26 26 26 24 25 26 25 24 24 22 21
26 27 29 31 32 33 33 33 33 33 35 36 37 38 38 38 38 39 39 36 34 35 36 36 36 37 36 36 35 34 35 36 34 33 32 33 32 32 33 32 31 32 32 32 32 32 30 29 29 28 27 27 27 26 24 25 27 26 25 25 23 22